Weather in Bolshiye Sanniki

Russia / Khabarovsk Krai     51°38′43″N   140°27′41″E
temp.,
°C
wind,
m/s
gust,
m/s
humid.,
%
clouds,
%
prec.,
mm/h
press.,
hPa
HPBL,
m
27 february, sat
sat2701:00−21wnw229475 0.0 102821
04:00−21nw229755 0.0 102928
07:00−22nw2210098 0.0 102924
10:00−16nw128865 0.0 1029194
13:00−12wnw25800 0.0 1027427
16:00−11wnw26803 0.0 1025484
19:00−16ne118998 0.0 102520
22:00−15ese229399 0.0 102226
28 february, sun
sun2801:00−14ese3493100 0.0 1018120
04:00−13ese2396100 0.4 1013113
07:00−13nne0196100 0.4 101120
10:00−10w51286100 0.6 1010689
13:00−9wnw388495 0.0 1010658
16:00−8nnw368298 0.1 1011538
19:00−12wnw2296100 0.1 101458
22:00−17wnw228999 0.1 101647
1 march, mon
mon101:00−22wnw229349 0.0 101731
04:00−23w229424 0.0 101930
07:00−23w279689 0.0 1020147
10:00−18wnw5118265 0.0 1022710
13:00−16wnw588359 0.0 1022889
16:00−15wsw598179 0.1 10231026
19:00−17wsw5127696 0.2 1024619
22:00−23wsw239371 0.2 102554
2 march, tue
tue201:00−23wsw229594 0.0 102538
04:00−23w119497 0.1 102620
07:00−26wsw118990 0.0 102819
10:00−22w267645 0.0 1028391
13:00−19w58760 0.0 1027753
16:00−18w47690 0.0 10271159
19:00−22wsw238569 0.0 102852
22:00−25sw118671 0.0 102920
3 march, wed
wed301:00−26ssw12910 0.0 102819
04:00−28sw11992 0.0 102719
07:00−29sw11990 0.0 102719
10:00−23w23880 0.0 1025246
13:00−18w248127 0.0 1022382
16:00−16w147714 0.0 1020372
19:00−20ese22880 0.0 101820
22:00−21ese229311 0.0 101622